| time (UTC) | temp C | wind direction | speed KPH | gust KPH | rain 1hr cm | rain 24hr cm | rain mn cm | humidity % | barometer mb |
| 20260504070359 | 34 | 340 | 30.6 | 99.8 | 0.00 | 0.00 | 0.00 | 27 | 1009.0 |
| 20260504070159 | 34 | 340 | 30.6 | 99.8 | 0.00 | 0.00 | 0.00 | 25 | 1009.0 |
| 20260504060234 | 33 | 326 | 32.2 | 99.8 | 0.00 | 0.00 | 0.00 | 28 | 1010.0 |
| 20260504050547 | 31 | 308 | 32.2 | 99.8 | 0.00 | 0.00 | 0.00 | 37 | 1011.0 |
| 20260504050347 | 31 | 308 | 32.2 | 99.8 | 0.00 | 0.00 | 0.00 | 37 | 1011.0 |
| 20260504050147 | 31 | 308 | 32.2 | 99.8 | 0.00 | 0.00 | 0.00 | 37 | 1011.0 |
| 20260504045947 | 31 | 305 | 32.2 | 96.6 | 0.00 | 0.00 | 0.00 | 40 | 1011.0 |
| 20260504045747 | 31 | 305 | 32.2 | 96.6 | 0.00 | 0.00 | 0.00 | 40 | 1011.0 |
| 20260504045547 | 31 | 305 | 32.2 | 96.6 | 0.00 | 0.00 | 0.00 | 40 | 1011.0 |
| 20260504045347 | 31 | 305 | 32.2 | 96.6 | 0.00 | 0.00 | 0.00 | 40 | 1011.0 |
| 20260504045147 | 31 | 305 | 32.2 | 96.6 | 0.00 | 0.00 | 0.00 | 40 | 1011.0 |
| 20260504044947 | 31 | 305 | 32.2 | 96.6 | 0.00 | 0.00 | 0.00 | 40 | 1011.0 |
| 20260504044547 | 31 | 305 | 32.2 | 96.6 | 0.00 | 0.00 | 0.00 | 40 | 1011.0 |
| 20260504044347 | 30 | 301 | 32.2 | 95.0 | 0.00 | 0.00 | 0.00 | 43 | 1011.0 |
| 20260504044147 | 30 | 301 | 32.2 | 95.0 | 0.00 | 0.00 | 0.00 | 43 | 1011.0 |
| 20260504043947 | 30 | 301 | 32.2 | 95.0 | 0.00 | 0.00 | 0.00 | 43 | 1011.0 |
| 20260504043747 | 30 | 301 | 32.2 | 95.0 | 0.00 | 0.00 | 0.00 | 43 | 1011.0 |
| 20260504043547 | 30 | 301 | 32.2 | 95.0 | 0.00 | 0.00 | 0.00 | 43 | 1011.0 |
| 20260504043347 | 30 | 301 | 32.2 | 95.0 | 0.00 | 0.00 | 0.00 | 43 | 1011.0 |
| 20260504043147 | 30 | 301 | 32.2 | 95.0 | 0.00 | 0.00 | 0.00 | 43 | 1011.0 |
| 20260504042947 | 29 | 296 | 32.2 | 91.7 | 0.00 | 0.00 | 0.00 | 47 | 1012.0 |
| 20260504042547 | 29 | 296 | 32.2 | 91.7 | 0.00 | 0.00 | 0.00 | 47 | 1012.0 |
| 20260504042347 | 29 | 296 | 32.2 | 91.7 | 0.00 | 0.00 | 0.00 | 47 | 1012.0 |
| 20260504042147 | 29 | 296 | 32.2 | 91.7 | 0.00 | 0.00 | 0.00 | 47 | 1012.0 |
| 20260504041947 | 29 | 296 | 32.2 | 91.7 | 0.00 | 0.00 | 0.00 | 47 | 1012.0 |
| 20260504041747 | 29 | 296 | 32.2 | 91.7 | 0.00 | 0.00 | 0.00 | 47 | 1012.0 |
| 20260504041547 | 29 | 296 | 32.2 | 91.7 | 0.00 | 0.00 | 0.00 | 47 | 1012.0 |
| 20260504041347 | 28 | 292 | 32.2 | 88.5 | 0.00 | 0.00 | 0.00 | 52 | 1012.0 |
| 20260504041147 | 28 | 292 | 32.2 | 88.5 | 0.00 | 0.00 | 0.00 | 52 | 1012.0 |
| 20260504040947 | 28 | 292 | 32.2 | 88.5 | 0.00 | 0.00 | 0.00 | 52 | 1012.0 |
| 20260504040748 | 28 | 292 | 32.2 | 88.5 | 0.00 | 0.00 | 0.00 | 52 | 1012.0 |
| 20260504040347 | 28 | 292 | 32.2 | 88.5 | 0.00 | 0.00 | 0.00 | 52 | 1012.0 |
| 20260504040148 | 28 | 292 | 32.2 | 88.5 | 0.00 | 0.00 | 0.00 | 52 | 1012.0 |
| 20260504035947 | 28 | 289 | 30.6 | 88.5 | 0.00 | 0.00 | 0.00 | 54 | 1012.0 |
| 20260504035747 | 28 | 289 | 30.6 | 88.5 | 0.00 | 0.00 | 0.00 | 54 | 1012.0 |
| 20260504035548 | 28 | 289 | 30.6 | 88.5 | 0.00 | 0.00 | 0.00 | 54 | 1012.0 |
| 20260504035347 | 28 | 289 | 30.6 | 88.5 | 0.00 | 0.00 | 0.00 | 54 | 1012.0 |
| 20260504035147 | 28 | 289 | 30.6 | 88.5 | 0.00 | 0.00 | 0.00 | 54 | 1012.0 |
| 20260504034947 | 28 | 289 | 30.6 | 88.5 | 0.00 | 0.00 | 0.00 | 54 | 1012.0 |
| 20260504034747 | 28 | 289 | 30.6 | 88.5 | 0.00 | 0.00 | 0.00 | 54 | 1012.0 |
| 20260504034347 | 27 | 284 | 30.6 | 85.3 | 0.00 | 0.00 | 0.00 | 58 | 1012.0 |
| 20260504034147 | 27 | 284 | 30.6 | 85.3 | 0.00 | 0.00 | 0.00 | 58 | 1012.0 |
| 20260504033947 | 27 | 284 | 30.6 | 85.3 | 0.00 | 0.00 | 0.00 | 58 | 1012.0 |
| 20260504033747 | 27 | 284 | 30.6 | 85.3 | 0.00 | 0.00 | 0.00 | 58 | 1012.0 |
| 20260504033547 | 27 | 284 | 30.6 | 85.3 | 0.00 | 0.00 | 0.00 | 58 | 1012.0 |
| 20260504033347 | 27 | 284 | 30.6 | 85.3 | 0.00 | 0.00 | 0.00 | 58 | 1012.0 |
| 20260504033147 | 27 | 284 | 30.6 | 85.3 | 0.00 | 0.00 | 0.00 | 58 | 1012.0 |
| 20260504032947 | 27 | 279 | 29.0 | 82.1 | 0.00 | 0.00 | 0.00 | 62 | 1012.0 |
| 20260504032747 | 27 | 279 | 29.0 | 82.1 | 0.00 | 0.00 | 0.00 | 62 | 1012.0 |
| 20260504032548 | 27 | 279 | 29.0 | 82.1 | 0.00 | 0.00 | 0.00 | 62 | 1012.0 |
| 20260504032147 | 27 | 279 | 29.0 | 82.1 | 0.00 | 0.00 | 0.00 | 62 | 1012.0 |
| 20260504031947 | 27 | 279 | 29.0 | 82.1 | 0.00 | 0.00 | 0.00 | 62 | 1012.0 |
| 20260504031747 | 27 | 279 | 29.0 | 82.1 | 0.00 | 0.00 | 0.00 | 62 | 1012.0 |
| 20260504031547 | 27 | 279 | 29.0 | 82.1 | 0.00 | 0.00 | 0.00 | 62 | 1012.0 |
| 20260504031347 | 26 | 274 | 29.0 | 80.5 | 0.00 | 0.00 | 0.00 | 66 | 1012.0 |
| 20260504031147 | 26 | 274 | 29.0 | 80.5 | 0.00 | 0.00 | 0.00 | 66 | 1012.0 |
| 20260504030947 | 26 | 274 | 29.0 | 80.5 | 0.00 | 0.00 | 0.00 | 66 | 1012.0 |
| 20260504030747 | 26 | 274 | 29.0 | 80.5 | 0.00 | 0.00 | 0.00 | 66 | 1012.0 |
| 20260504030547 | 26 | 274 | 29.0 | 80.5 | 0.00 | 0.00 | 0.00 | 66 | 1012.0 |
| 20260504030348 | 26 | 274 | 29.0 | 80.5 | 0.00 | 0.00 | 0.00 | 66 | 1012.0 |
| 20260504025947 | 25 | 274 | 27.4 | 77.2 | 0.00 | 0.00 | 0.00 | 69 | 1012.0 |
| 20260504025747 | 25 | 274 | 27.4 | 77.2 | 0.00 | 0.00 | 0.00 | 69 | 1012.0 |
| 20260504025547 | 25 | 274 | 27.4 | 77.2 | 0.00 | 0.00 | 0.00 | 69 | 1012.0 |
| 20260504025347 | 25 | 274 | 27.4 | 77.2 | 0.00 | 0.00 | 0.00 | 69 | 1012.0 |
| 20260504025147 | 25 | 274 | 27.4 | 77.2 | 0.00 | 0.00 | 0.00 | 69 | 1012.0 |
| 20260504024947 | 25 | 274 | 27.4 | 77.2 | 0.00 | 0.00 | 0.00 | 69 | 1012.0 |
| 20260504024747 | 25 | 274 | 27.4 | 77.2 | 0.00 | 0.00 | 0.00 | 69 | 1012.0 |
| 20260504024547 | 25 | 274 | 27.4 | 77.2 | 0.00 | 0.00 | 0.00 | 69 | 1012.0 |
| 20260504024347 | 25 | 274 | 27.4 | 74.0 | 0.00 | 0.00 | 0.00 | 74 | 1012.0 |
| 20260504024148 | 25 | 274 | 27.4 | 74.0 | 0.00 | 0.00 | 0.00 | 74 | 1012.0 |
| 20260504023747 | 25 | 274 | 27.4 | 74.0 | 0.00 | 0.00 | 0.00 | 74 | 1012.0 |
| 20260504023547 | 25 | 274 | 27.4 | 74.0 | 0.00 | 0.00 | 0.00 | 74 | 1012.0 |
| 20260504023347 | 25 | 274 | 27.4 | 74.0 | 0.00 | 0.00 | 0.00 | 74 | 1012.0 |
| 20260504023147 | 25 | 274 | 27.4 | 74.0 | 0.00 | 0.00 | 0.00 | 74 | 1012.0 |
| 20260504022947 | 24 | 272 | 25.7 | 70.8 | 0.00 | 0.00 | 0.00 | 78 | 1012.0 |
| 20260504022747 | 24 | 272 | 25.7 | 70.8 | 0.00 | 0.00 | 0.00 | 78 | 1012.0 |
| 20260504022547 | 24 | 272 | 25.7 | 70.8 | 0.00 | 0.00 | 0.00 | 78 | 1012.0 |
| 20260504022347 | 24 | 272 | 25.7 | 70.8 | 0.00 | 0.00 | 0.00 | 78 | 1012.0 |
| 20260504022147 | 24 | 272 | 25.7 | 70.8 | 0.00 | 0.00 | 0.00 | 78 | 1012.0 |
| 20260504021551 | 24 | 272 | 25.7 | 70.8 | 0.00 | 0.00 | 0.00 | 78 | 1012.0 |
| 20260504021351 | 23 | 271 | 25.7 | 66.0 | 0.00 | 0.00 | 0.00 | 83 | 1012.0 |
| 20260504021151 | 23 | 271 | 25.7 | 66.0 | 0.00 | 0.00 | 0.00 | 83 | 1012.0 |
| 20260504020951 | 23 | 271 | 25.7 | 66.0 | 0.00 | 0.00 | 0.00 | 83 | 1012.0 |
| 20260504020551 | 23 | 271 | 25.7 | 66.0 | 0.00 | 0.00 | 0.00 | 83 | 1012.0 |
| 20260504020351 | 23 | 271 | 25.7 | 66.0 | 0.00 | 0.00 | 0.00 | 83 | 1012.0 |
| 20260504020151 | 23 | 271 | 25.7 | 66.0 | 0.00 | 0.00 | 0.00 | 83 | 1012.0 |
| 20260504015951 | 23 | 270 | 24.1 | 62.8 | 0.00 | 0.00 | 0.00 | 84 | 1012.0 |
| 20260504015751 | 23 | 270 | 24.1 | 62.8 | 0.00 | 0.00 | 0.00 | 84 | 1012.0 |
| 20260504015551 | 23 | 270 | 24.1 | 62.8 | 0.00 | 0.00 | 0.00 | 84 | 1012.0 |
| 20260504015351 | 23 | 270 | 24.1 | 62.8 | 0.00 | 0.00 | 0.00 | 84 | 1012.0 |
| 20260504015151 | 23 | 270 | 24.1 | 62.8 | 0.00 | 0.00 | 0.00 | 84 | 1012.0 |
| 20260504014951 | 23 | 270 | 24.1 | 62.8 | 0.00 | 0.00 | 0.00 | 84 | 1012.0 |
| 20260504014551 | 23 | 270 | 24.1 | 62.8 | 0.00 | 0.00 | 0.00 | 84 | 1012.0 |
| 20260504014351 | 22 | 267 | 24.1 | 59.5 | 0.00 | 0.00 | 0.00 | 87 | 1012.0 |
| 20260504014151 | 22 | 267 | 24.1 | 59.5 | 0.00 | 0.00 | 0.00 | 87 | 1012.0 |
| 20260504013951 | 22 | 267 | 24.1 | 59.5 | 0.00 | 0.00 | 0.00 | 87 | 1012.0 |
| 20260504013751 | 22 | 267 | 24.1 | 59.5 | 0.00 | 0.00 | 0.00 | 87 | 1012.0 |
| 20260504013551 | 22 | 267 | 24.1 | 59.5 | 0.00 | 0.00 | 0.00 | 87 | 1012.0 |
| 20260504013351 | 22 | 267 | 24.1 | 59.5 | 0.00 | 0.00 | 0.00 | 87 | 1012.0 |
| 20260504013151 | 22 | 267 | 24.1 | 59.5 | 0.00 | 0.00 | 0.00 | 87 | 1012.0 |
| 20260504012951 | 22 | 265 | 24.1 | 54.7 | 0.00 | 0.00 | 0.00 | 89 | 1011.0 |
| 20260504012752 | 22 | 265 | 24.1 | 54.7 | 0.00 | 0.00 | 0.00 | 89 | 1011.0 |
| 20260504012351 | 22 | 265 | 24.1 | 54.7 | 0.00 | 0.00 | 0.00 | 89 | 1011.0 |
| 20260504012151 | 22 | 265 | 24.1 | 54.7 | 0.00 | 0.00 | 0.00 | 89 | 1011.0 |
| 20260504011951 | 22 | 265 | 24.1 | 54.7 | 0.00 | 0.00 | 0.00 | 89 | 1011.0 |
| 20260504011751 | 22 | 265 | 24.1 | 54.7 | 0.00 | 0.00 | 0.00 | 89 | 1011.0 |
| 20260504011551 | 22 | 265 | 24.1 | 54.7 | 0.00 | 0.00 | 0.00 | 89 | 1011.0 |
| 20260504011351 | 22 | 263 | 22.5 | 51.5 | 0.00 | 0.00 | 0.00 | 91 | 1011.0 |
| 20260504011151 | 22 | 263 | 22.5 | 51.5 | 0.00 | 0.00 | 0.00 | 91 | 1011.0 |
| 20260504010951 | 22 | 269 | 22.5 | 51.5 | 0.00 | 0.00 | 0.00 | 91 | 1011.0 |
| 20260504010751 | 22 | 269 | 22.5 | 51.5 | 0.00 | 0.00 | 0.00 | 91 | 1011.0 |
| 20260504010552 | 22 | 269 | 22.5 | 51.5 | 0.00 | 0.00 | 0.00 | 91 | 1011.0 |
| 20260504010152 | 22 | 269 | 20.9 | 51.5 | 0.00 | 0.00 | 0.00 | 91 | 1011.0 |
| 20260504005951 | 22 | 269 | 20.9 | 51.5 | 0.00 | 0.00 | 0.00 | 91 | 1011.0 |
| 20260504005751 | 22 | 269 | 20.9 | 51.5 | 0.00 | 0.00 | 0.00 | 91 | 1011.0 |
| 20260504005551 | 22 | 269 | 20.9 | 51.5 | 0.00 | 0.00 | 0.00 | 91 | 1011.0 |
| 20260504005351 | 22 | 269 | 20.9 | 51.5 | 0.00 | 0.00 | 0.00 | 91 | 1011.0 |
| 20260504005151 | 22 | 269 | 20.9 | 51.5 | 0.00 | 0.00 | 0.00 | 91 | 1011.0 |
| 20260504004951 | 22 | 269 | 20.9 | 51.5 | 0.00 | 0.00 | 0.00 | 91 | 1011.0 |
| 20260504004751 | 22 | 269 | 20.9 | 51.5 | 0.00 | 0.00 | 0.00 | 91 | 1011.0 |
| 20260504004551 | 22 | 269 | 20.9 | 51.5 | 0.00 | 0.00 | 0.00 | 91 | 1011.0 |
| 20260504004151 | 22 | 267 | 20.9 | 54.7 | 0.00 | 0.00 | 0.00 | 90 | 1011.0 |
| 20260504003951 | 21 | 267 | 20.9 | 54.7 | 0.00 | 0.00 | 0.00 | 94 | 1011.0 |
| 20260504003752 | 21 | 267 | 20.9 | 54.7 | 0.00 | 0.00 | 0.00 | 94 | 1011.0 |
| 20260504003551 | 21 | 267 | 20.9 | 54.7 | 0.00 | 0.00 | 0.00 | 94 | 1011.0 |
| 20260504003351 | 21 | 267 | 20.9 | 54.7 | 0.00 | 0.00 | 0.00 | 94 | 1011.0 |
| 20260504003151 | 21 | 267 | 20.9 | 54.7 | 0.00 | 0.00 | 0.00 | 94 | 1011.0 |
| 20260504002951 | 21 | 265 | 20.9 | 59.5 | 0.00 | 0.00 | 0.00 | 94 | 1011.0 |
| 20260504002751 | 21 | 265 | 20.9 | 59.5 | 0.00 | 0.00 | 0.00 | 94 | 1011.0 |
| 20260504002551 | 21 | 265 | 20.9 | 59.5 | 0.00 | 0.00 | 0.00 | 94 | 1011.0 |
| 20260504002352 | 21 | 265 | 20.9 | 59.5 | 0.00 | 0.00 | 0.00 | 94 | 1011.0 |
| 20260504001951 | 21 | 265 | 20.9 | 59.5 | 0.00 | 0.00 | 0.00 | 94 | 1011.0 |
| 20260504001751 | 21 | 265 | 20.9 | 59.5 | 0.00 | 0.00 | 0.00 | 94 | 1011.0 |
| 20260504001551 | 21 | 265 | 20.9 | 59.5 | 0.00 | 0.00 | 0.05 | 94 | 1011.0 |
| 20260504001351 | 21 | 259 | 20.9 | 62.8 | 0.00 | 0.00 | 0.05 | 93 | 1011.0 |
| 20260504001151 | 21 | 259 | 20.9 | 62.8 | 0.00 | 0.00 | 0.05 | 93 | 1011.0 |
| 20260504000951 | 21 | 259 | 20.9 | 62.8 | 0.00 | 0.00 | 0.05 | 94 | 1011.0 |
| 20260504000751 | 21 | 259 | 20.9 | 62.8 | 0.00 | 0.00 | 0.05 | 94 | 1011.0 |
| 20260504000551 | 21 | 259 | 20.9 | 62.8 | 0.00 | 0.00 | 0.05 | 94 | 1011.0 |
| 20260504000354 | 21 | 259 | 20.9 | 62.8 | 0.00 | 0.00 | 0.05 | 94 | 1011.0 |
| 20260503235951 | 21 | 249 | 20.9 | 66.0 | 0.00 | 0.00 | 0.05 | 93 | 1010.0 |
| 20260503235754 | 21 | 249 | 20.9 | 66.0 | 0.00 | 0.00 | 0.05 | 93 | 1010.0 |
| 20260503235551 | 21 | 249 | 20.9 | 66.0 | 0.00 | 0.00 | 0.05 | 93 | 1010.0 |
| 20260503235351 | 21 | 249 | 20.9 | 66.0 | 0.00 | 0.00 | 0.05 | 93 | 1010.0 |
| 20260503235151 | 21 | 249 | 20.9 | 66.0 | 0.00 | 0.00 | 0.05 | 93 | 1010.0 |
| 20260503234951 | 21 | 249 | 20.9 | 66.0 | 0.00 | 0.00 | 0.05 | 93 | 1010.0 |
| 20260503234751 | 21 | 249 | 20.9 | 66.0 | 0.00 | 0.00 | 0.05 | 93 | 1010.0 |
| 20260503234551 | 21 | 249 | 20.9 | 66.0 | 0.00 | 0.00 | 0.05 | 93 | 1010.0 |
| 20260503234351 | 21 | 236 | 24.1 | 67.6 | 0.00 | 0.00 | 0.05 | 93 | 1010.0 |
| 20260503234152 | 21 | 236 | 24.1 | 67.6 | 0.00 | 0.00 | 0.05 | 93 | 1010.0 |
| 20260503233751 | 21 | 236 | 24.1 | 67.6 | 0.00 | 0.00 | 0.05 | 93 | 1010.0 |
| 20260503233552 | 21 | 236 | 24.1 | 67.6 | 0.00 | 0.00 | 0.05 | 93 | 1010.0 |
| 20260503233352 | 21 | 236 | 24.1 | 67.6 | 0.00 | 0.00 | 0.05 | 93 | 1010.0 |
| 20260503233151 | 21 | 236 | 24.1 | 67.6 | 0.00 | 0.00 | 0.05 | 93 | 1010.0 |
| 20260503232952 | 21 | 225 | 27.4 | 70.8 | 0.00 | 0.00 | 0.05 | 91 | 1010.0 |
| 20260503232752 | 21 | 225 | 27.4 | 70.8 | 0.00 | 0.00 | 0.05 | 91 | 1010.0 |
| 20260503232551 | 21 | 225 | 27.4 | 70.8 | 0.00 | 0.00 | 0.05 | 91 | 1010.0 |
| 20260503232351 | 21 | 225 | 27.4 | 70.8 | 0.00 | 0.00 | 0.05 | 91 | 1010.0 |
| 20260503232152 | 21 | 225 | 27.4 | 70.8 | 0.00 | 0.00 | 0.05 | 91 | 1010.0 |
| 20260503231952 | 21 | 225 | 27.4 | 70.8 | 0.00 | 0.00 | 0.05 | 91 | 1010.0 |
| 20260503231551 | 21 | 225 | 27.4 | 70.8 | 0.00 | 0.00 | 0.05 | 91 | 1010.0 |
| 20260503231351 | 21 | 221 | 30.6 | 72.4 | 0.00 | 0.00 | 0.05 | 90 | 1010.0 |
| 20260503231151 | 21 | 221 | 30.6 | 72.4 | 0.00 | 0.00 | 0.05 | 90 | 1010.0 |
| 20260503230951 | 21 | 221 | 30.6 | 72.4 | 0.00 | 0.00 | 0.05 | 90 | 1010.0 |
| 20260503230752 | 21 | 221 | 30.6 | 72.4 | 0.00 | 0.00 | 0.05 | 90 | 1010.0 |
| 20260503230551 | 21 | 221 | 30.6 | 72.4 | 0.00 | 0.00 | 0.05 | 90 | 1010.0 |
| 20260503230351 | 21 | 221 | 30.6 | 72.4 | 0.00 | 0.00 | 0.05 | 90 | 1010.0 |
| 20260503230152 | 21 | 221 | 30.6 | 72.4 | 0.00 | 0.00 | 0.05 | 90 | 1010.0 |
| 20260503225952 | 21 | 222 | 30.6 | 72.4 | 0.00 | 0.00 | 0.05 | 89 | 1010.0 |
| 20260503225552 | 21 | 222 | 30.6 | 72.4 | 0.00 | 0.00 | 0.05 | 89 | 1010.0 |
| 20260503225352 | 21 | 222 | 30.6 | 72.4 | 0.00 | 0.00 | 0.05 | 89 | 1010.0 |
| 20260503225152 | 21 | 222 | 30.6 | 72.4 | 0.00 | 0.00 | 0.05 | 89 | 1010.0 |
| 20260503224952 | 21 | 222 | 30.6 | 72.4 | 0.00 | 0.00 | 0.05 | 89 | 1010.0 |
| 20260503224752 | 21 | 222 | 30.6 | 72.4 | 0.00 | 0.00 | 0.05 | 89 | 1010.0 |
| 20260503224551 | 21 | 222 | 30.6 | 72.4 | 0.00 | 0.00 | 0.05 | 89 | 1010.0 |
| 20260503224352 | 22 | 224 | 32.2 | 74.0 | 0.00 | 0.00 | 0.05 | 87 | 1010.0 |
| 20260503224152 | 22 | 224 | 32.2 | 74.0 | 0.00 | 0.00 | 0.05 | 87 | 1010.0 |
| 20260503223952 | 22 | 224 | 32.2 | 74.0 | 0.00 | 0.00 | 0.05 | 87 | 1010.0 |
| 20260503223752 | 22 | 224 | 32.2 | 74.0 | 0.00 | 0.00 | 0.05 | 87 | 1010.0 |
| 20260503223352 | 22 | 224 | 32.2 | 74.0 | 0.00 | 0.00 | 0.05 | 87 | 1010.0 |
| 20260503223152 | 22 | 224 | 32.2 | 74.0 | 0.00 | 0.00 | 0.05 | 87 | 1010.0 |
| 20260503222952 | 22 | 226 | 33.8 | 74.0 | 0.00 | 0.00 | 0.05 | 85 | 1009.0 |
| 20260503222752 | 22 | 226 | 33.8 | 74.0 | 0.00 | 0.00 | 0.05 | 85 | 1009.0 |
| 20260503222552 | 22 | 226 | 33.8 | 74.0 | 0.00 | 0.00 | 0.05 | 85 | 1009.0 |
| 20260503222352 | 22 | 226 | 33.8 | 74.0 | 0.00 | 0.00 | 0.05 | 85 | 1009.0 |
| 20260503222152 | 22 | 226 | 33.8 | 74.0 | 0.00 | 0.00 | 0.05 | 85 | 1009.0 |
| 20260503221952 | 22 | 226 | 33.8 | 74.0 | 0.00 | 0.00 | 0.05 | 85 | 1009.0 |
| 20260503221752 | 22 | 226 | 33.8 | 74.0 | 0.00 | 0.00 | 0.05 | 85 | 1009.0 |
| 20260503221552 | 22 | 226 | 33.8 | 74.0 | 0.00 | 0.00 | 0.05 | 85 | 1009.0 |
| 20260503221151 | 22 | 228 | 35.4 | 74.0 | 0.00 | 0.00 | 0.05 | 84 | 1009.0 |
| 20260503220952 | 22 | 228 | 35.4 | 74.0 | 0.00 | 0.00 | 0.05 | 84 | 1009.0 |
| 20260503220752 | 22 | 228 | 35.4 | 74.0 | 0.00 | 0.00 | 0.05 | 84 | 1009.0 |
| 20260503220551 | 22 | 228 | 35.4 | 74.0 | 0.00 | 0.00 | 0.05 | 84 | 1009.0 |
| 20260503220351 | 22 | 228 | 35.4 | 74.0 | 0.00 | 0.00 | 0.05 | 84 | 1009.0 |
| 20260503220156 | 22 | 228 | 35.4 | 74.0 | 0.00 | 0.00 | 0.05 | 83 | 1009.0 |
| 20260503215952 | 22 | 228 | 35.4 | 74.0 | 0.00 | 0.00 | 0.05 | 83 | 1009.0 |
| 20260503215751 | 22 | 228 | 35.4 | 74.0 | 0.00 | 0.00 | 0.05 | 83 | 1009.0 |
| 20260503215552 | 22 | 228 | 35.4 | 74.0 | 0.00 | 0.00 | 0.05 | 83 | 1009.0 |
| 20260503215352 | 22 | 228 | 35.4 | 74.0 | 0.00 | 0.00 | 0.05 | 83 | 1009.0 |
| 20260503214952 | 22 | 228 | 35.4 | 74.0 | 0.00 | 0.00 | 0.05 | 83 | 1009.0 |
| 20260503214752 | 22 | 228 | 35.4 | 74.0 | 0.00 | 0.00 | 0.05 | 83 | 1009.0 |
| 20260503214552 | 22 | 228 | 35.4 | 74.0 | 0.00 | 0.00 | 0.05 | 83 | 1009.0 |
| 20260503214352 | 22 | 228 | 35.4 | 75.6 | 0.00 | 0.00 | 0.05 | 81 | 1009.0 |
| 20260503214152 | 22 | 228 | 35.4 | 75.6 | 0.00 | 0.00 | 0.05 | 81 | 1009.0 |
| 20260503213952 | 22 | 228 | 35.4 | 75.6 | 0.00 | 0.00 | 0.05 | 81 | 1009.0 |
| 20260503213752 | 22 | 228 | 35.4 | 75.6 | 0.00 | 0.00 | 0.05 | 81 | 1009.0 |
| 20260503213553 | 22 | 228 | 35.4 | 75.6 | 0.00 | 0.00 | 0.05 | 81 | 1009.0 |
| 20260503213352 | 22 | 228 | 35.4 | 75.6 | 0.00 | 0.00 | 0.05 | 81 | 1009.0 |
| 20260503212952 | 22 | 228 | 35.4 | 75.6 | 0.00 | 0.00 | 0.05 | 79 | 1009.0 |
| 20260503212752 | 22 | 228 | 35.4 | 75.6 | 0.00 | 0.00 | 0.05 | 79 | 1009.0 |
| 20260503212552 | 22 | 228 | 35.4 | 75.6 | 0.00 | 0.00 | 0.05 | 79 | 1009.0 |
| 20260503212352 | 22 | 228 | 35.4 | 75.6 | 0.00 | 0.00 | 0.05 | 79 | 1009.0 |
| 20260503212152 | 22 | 228 | 35.4 | 75.6 | 0.00 | 0.00 | 0.05 | 79 | 1009.0 |
| 20260503211952 | 22 | 228 | 35.4 | 75.6 | 0.00 | 0.00 | 0.05 | 79 | 1009.0 |
| 20260503211752 | 22 | 228 | 35.4 | 75.6 | 0.00 | 0.00 | 0.05 | 79 | 1009.0 |
| 20260503211352 | 22 | 229 | 35.4 | 77.2 | 0.00 | 0.00 | 0.05 | 77 | 1009.0 |
| 20260503211151 | 22 | 229 | 35.4 | 77.2 | 0.00 | 0.00 | 0.05 | 77 | 1009.0 |
| 20260503210952 | 22 | 229 | 35.4 | 77.2 | 0.00 | 0.00 | 0.05 | 77 | 1009.0 |
| 20260503210752 | 22 | 229 | 35.4 | 77.2 | 0.00 | 0.00 | 0.05 | 77 | 1009.0 |
| 20260503210552 | 22 | 229 | 35.4 | 77.2 | 0.00 | 0.00 | 0.05 | 77 | 1009.0 |
| 20260503210352 | 22 | 229 | 35.4 | 77.2 | 0.00 | 0.00 | 0.05 | 77 | 1009.0 |
| 20260503210152 | 22 | 229 | 35.4 | 77.2 | 0.00 | 0.00 | 0.05 | 77 | 1009.0 |
| 20260503205952 | 23 | 229 | 35.4 | 77.2 | 0.00 | 0.00 | 0.05 | 76 | 1009.0 |
| 20260503205751 | 23 | 229 | 35.4 | 77.2 | 0.00 | 0.00 | 0.05 | 76 | 1009.0 |
| 20260503205552 | 23 | 229 | 35.4 | 77.2 | 0.00 | 0.00 | 0.05 | 76 | 1009.0 |
| 20260503205152 | 23 | 229 | 35.4 | 77.2 | 0.00 | 0.00 | 0.05 | 76 | 1009.0 |
| 20260503204952 | 23 | 229 | 35.4 | 77.2 | 0.00 | 0.00 | 0.05 | 76 | 1009.0 |
| 20260503204752 | 23 | 229 | 35.4 | 77.2 | 0.00 | 0.00 | 0.05 | 76 | 1009.0 |
| 20260503204552 | 23 | 229 | 35.4 | 77.2 | 0.00 | 0.00 | 0.05 | 76 | 1009.0 |
| 20260503204352 | 23 | 229 | 37.0 | 77.2 | 0.00 | 0.00 | 0.05 | 75 | 1009.0 |
| 20260503204152 | 23 | 229 | 37.0 | 77.2 | 0.00 | 0.00 | 0.05 | 75 | 1009.0 |
| 20260503203952 | 23 | 229 | 37.0 | 77.2 | 0.00 | 0.00 | 0.05 | 75 | 1009.0 |
| 20260503203752 | 23 | 229 | 37.0 | 77.2 | 0.00 | 0.00 | 0.05 | 75 | 1009.0 |
| 20260503203552 | 23 | 229 | 37.0 | 77.2 | 0.00 | 0.00 | 0.05 | 75 | 1009.0 |
| 20260503203152 | 23 | 229 | 37.0 | 77.2 | 0.00 | 0.00 | 0.05 | 75 | 1009.0 |
| 20260503202952 | 23 | 229 | 37.0 | 77.2 | 0.00 | 0.00 | 0.05 | 73 | 1010.0 |
| 20260503202752 | 23 | 229 | 37.0 | 77.2 | 0.00 | 0.00 | 0.05 | 73 | 1010.0 |
| 20260503202552 | 23 | 229 | 37.0 | 77.2 | 0.00 | 0.00 | 0.05 | 73 | 1010.0 |
| 20260503202352 | 23 | 229 | 37.0 | 77.2 | 0.00 | 0.00 | 0.05 | 73 | 1010.0 |
| 20260503202153 | 23 | 229 | 37.0 | 77.2 | 0.00 | 0.00 | 0.05 | 73 | 1010.0 |
| 20260503201952 | 23 | 229 | 37.0 | 77.2 | 0.00 | 0.00 | 0.05 | 73 | 1010.0 |
| 20260503201752 | 23 | 229 | 37.0 | 77.2 | 0.00 | 0.00 | 0.05 | 73 | 1010.0 |
| 20260503201552 | 23 | 229 | 37.0 | 77.2 | 0.00 | 0.00 | 0.05 | 73 | 1010.0 |
| 20260503201152 | 23 | 232 | 37.0 | 78.9 | 0.00 | 0.00 | 0.05 | 71 | 1010.0 |
| 20260503200952 | 23 | 232 | 37.0 | 78.9 | 0.00 | 0.00 | 0.05 | 71 | 1010.0 |
| 20260503200752 | 23 | 232 | 37.0 | 78.9 | 0.00 | 0.00 | 0.05 | 71 | 1010.0 |
| 20260503200552 | 23 | 232 | 37.0 | 78.9 | 0.00 | 0.00 | 0.05 | 71 | 1010.0 |
| 20260503200352 | 23 | 232 | 37.0 | 78.9 | 0.00 | 0.00 | 0.05 | 71 | 1010.0 |
| 20260503200152 | 23 | 232 | 37.0 | 78.9 | 0.00 | 0.00 | 0.05 | 71 | 1010.0 |
| 20260503195952 | 23 | 236 | 37.0 | 82.1 | 0.00 | 0.00 | 0.05 | 70 | 1010.0 |
| 20260503195752 | 23 | 236 | 37.0 | 82.1 | 0.00 | 0.00 | 0.05 | 70 | 1010.0 |
| 20260503195552 | 23 | 236 | 37.0 | 82.1 | 0.00 | 0.00 | 0.05 | 70 | 1010.0 |
| 20260503195352 | 23 | 236 | 37.0 | 82.1 | 0.00 | 0.00 | 0.05 | 70 | 1010.0 |
| 20260503194952 | 23 | 236 | 37.0 | 82.1 | 0.00 | 0.00 | 0.05 | 70 | 1010.0 |
| 20260503194752 | 23 | 236 | 37.0 | 82.1 | 0.00 | 0.00 | 0.05 | 70 | 1010.0 |
| 20260503194552 | 23 | 236 | 37.0 | 82.1 | 0.00 | 0.00 | 0.05 | 70 | 1010.0 |
| 20260503194355 | 24 | 242 | 37.0 | 85.3 | 0.00 | 0.00 | 0.05 | 67 | 1010.0 |
| 20260503194152 | 24 | 242 | 37.0 | 85.3 | 0.00 | 0.00 | 0.05 | 67 | 1010.0 |
| 20260503193952 | 24 | 242 | 37.0 | 85.3 | 0.00 | 0.00 | 0.05 | 67 | 1010.0 |
| 20260503193752 | 24 | 242 | 37.0 | 85.3 | 0.00 | 0.00 | 0.05 | 67 | 1010.0 |
| 20260503193552 | 24 | 242 | 37.0 | 85.3 | 0.00 | 0.00 | 0.05 | 67 | 1010.0 |
| 20260503193352 | 24 | 242 | 37.0 | 85.3 | 0.00 | 0.00 | 0.05 | 67 | 1010.0 |
| 20260503192952 | 24 | 247 | 37.0 | 88.5 | 0.00 | 0.00 | 0.05 | 65 | 1010.0 |
| 20260503192752 | 24 | 247 | 37.0 | 88.5 | 0.00 | 0.00 | 0.05 | 65 | 1010.0 |
| 20260503192552 | 24 | 247 | 37.0 | 88.5 | 0.00 | 0.00 | 0.05 | 65 | 1010.0 |
| 20260503192352 | 24 | 247 | 37.0 | 88.5 | 0.00 | 0.00 | 0.05 | 65 | 1010.0 |
| 20260503192152 | 24 | 251 | 37.0 | 88.5 | 0.00 | 0.00 | 0.05 | 65 | 1010.0 |
| 20260503191952 | 24 | 251 | 37.0 | 88.5 | 0.00 | 0.00 | 0.05 | 65 | 1010.0 |
| 20260503191752 | 24 | 251 | 37.0 | 88.5 | 0.00 | 0.00 | 0.05 | 65 | 1010.0 |
| 20260503191552 | 24 | 251 | 37.0 | 88.5 | 0.00 | 0.00 | 0.05 | 65 | 1010.0 |
| 20260503191352 | 25 | 250 | 35.4 | 90.1 | 0.00 | 0.00 | 0.05 | 61 | 1010.0 |
| 20260503190952 | 25 | 250 | 35.4 | 90.1 | 0.00 | 0.00 | 0.05 | 61 | 1010.0 |
| 20260503190752 | 25 | 250 | 35.4 | 90.1 | 0.00 | 0.00 | 0.05 | 61 | 1010.0 |
| 20260503190552 | 25 | 250 | 35.4 | 93.3 | 0.00 | 0.00 | 0.05 | 61 | 1010.0 |
| 20260503190352 | 25 | 250 | 35.4 | 93.3 | 0.00 | 0.00 | 0.05 | 61 | 1010.0 |
| 20260503190152 | 25 | 250 | 35.4 | 93.3 | 0.00 | 0.00 | 0.05 | 61 | 1010.0 |
| 20260503185952 | 25 | 243 | 37.0 | 93.3 | 0.00 | 0.05 | 0.00 | 59 | 1010.0 |
| 20260503185752 | 25 | 243 | 37.0 | 93.3 | 0.00 | 0.05 | 0.00 | 59 | 1010.0 |
| 20260503185552 | 25 | 243 | 37.0 | 93.3 | 0.00 | 0.05 | 0.00 | 56 | 1010.0 |
| 20260503185352 | 25 | 243 | 37.0 | 93.3 | 0.00 | 0.05 | 0.00 | 56 | 1010.0 |
| 20260503185152 | 25 | 243 | 37.0 | 93.3 | 0.00 | 0.05 | 0.00 | 56 | 1010.0 |
| 20260503184752 | 25 | 243 | 37.0 | 93.3 | 0.00 | 0.05 | 0.00 | 56 | 1010.0 |
| 20260503184552 | 25 | 243 | 37.0 | 93.3 | 0.00 | 0.05 | 0.00 | 56 | 1010.0 |
| 20260503184352 | 26 | 236 | 40.2 | 91.7 | 0.00 | 0.05 | 0.00 | 52 | 1010.0 |
| 20260503184152 | 26 | 236 | 40.2 | 91.7 | 0.00 | 0.05 | 0.00 | 52 | 1010.0 |
| 20260503183952 | 26 | 236 | 40.2 | 91.7 | 0.00 | 0.05 | 0.00 | 52 | 1010.0 |
| 20260503183752 | 26 | 236 | 40.2 | 91.7 | 0.00 | 0.48 | 0.00 | 52 | 1010.0 |
| 20260503183552 | 26 | 236 | 40.2 | 91.7 | 0.00 | 0.48 | 0.00 | 52 | 1010.0 |
| 20260503183352 | 26 | 236 | 40.2 | 91.7 | 0.00 | 0.48 | 0.00 | 47 | 1010.0 |
| 20260503183152 | 26 | 236 | 40.2 | 91.7 | 0.00 | 0.48 | 0.00 | 47 | 1010.0 |
| 20260503182953 | 26 | 230 | 43.5 | 88.5 | 0.00 | 0.48 | 0.00 | 44 | 1010.0 |
| 20260503182552 | 26 | 230 | 43.5 | 88.5 | 0.00 | 0.48 | 0.00 | 44 | 1010.0 |
| 20260503182352 | 26 | 230 | 43.5 | 88.5 | 0.00 | 0.48 | 0.00 | 44 | 1010.0 |
| 20260503182152 | 26 | 230 | 43.5 | 88.5 | 0.00 | 0.48 | 0.00 | 44 | 1010.0 |
| 20260503181952 | 26 | 230 | 43.5 | 88.5 | 0.00 | 0.48 | 0.00 | 44 | 1010.0 |
| 20260503181752 | 26 | 230 | 43.5 | 88.5 | 0.00 | 0.48 | 0.00 | 44 | 1010.0 |
| 20260503181552 | 26 | 230 | 43.5 | 88.5 | 0.00 | 0.48 | 0.00 | 44 | 1010.0 |
| 20260503181352 | 27 | 226 | 43.5 | 85.3 | 0.00 | 0.48 | 0.00 | 42 | 1010.0 |
| 20260503181152 | 27 | 226 | 43.5 | 85.3 | 0.00 | 0.48 | 0.00 | 42 | 1010.0 |
| 20260503180952 | 27 | 226 | 43.5 | 85.3 | 0.00 | 0.48 | 0.00 | 42 | 1010.0 |
| 20260503173952 | 27 | 221 | 29.0 | 62.8 | 0.00 | 0.48 | 0.00 | 42 | 1010.0 |
| 20260503173752 | 27 | 221 | 29.0 | 62.8 | 0.00 | 0.48 | 0.00 | 42 | 1010.0 |
| 20260503173552 | 27 | 221 | 29.0 | 62.8 | 0.00 | 0.48 | 0.00 | 42 | 1010.0 |
| 20260503173352 | 27 | 221 | 29.0 | 62.8 | 0.00 | 0.48 | 0.00 | 42 | 1010.0 |
| 20260503173152 | 27 | 221 | 29.0 | 62.8 | 0.00 | 0.48 | 0.00 | 42 | 1010.0 |
| 20260503172952 | 27 | 216 | 20.9 | 49.9 | 0.00 | 0.48 | 0.00 | 42 | 1010.0 |
| 20260503172752 | 27 | 216 | 20.9 | 49.9 | 0.00 | 0.48 | 0.00 | 42 | 1010.0 |
| 20260503172552 | 27 | 216 | 20.9 | 49.9 | 0.00 | 0.48 | 0.00 | 42 | 1010.0 |
| 20260503172352 | 27 | 216 | 20.9 | 49.9 | 0.00 | 0.48 | 0.00 | 42 | 1010.0 |
| 20260503171952 | 27 | 216 | 20.9 | 49.9 | 0.00 | 0.48 | 0.00 | 42 | 1010.0 |
| 20260503171752 | 27 | 216 | 20.9 | 49.9 | 0.00 | 0.48 | 0.00 | 42 | 1010.0 |
| 20260503171552 | 27 | 216 | 20.9 | 49.9 | 0.00 | 0.48 | 0.00 | 42 | 1010.0 |
| 20260503171352 | 27 | 208 | 14.5 | 40.2 | 0.00 | 0.48 | 0.00 | 42 | 1010.0 |
| 20260503171152 | 27 | 208 | 14.5 | 40.2 | 0.00 | 0.48 | 0.00 | 42 | 1010.0 |
| 20260503170952 | 27 | 208 | 14.5 | 40.2 | 0.00 | 0.48 | 0.00 | 42 | 1010.0 |
| 20260503170752 | 27 | 208 | 14.5 | 40.2 | 0.00 | 0.48 | 0.00 | 42 | 1010.0 |
| 20260503170552 | 27 | 208 | 14.5 | 40.2 | 0.00 | 0.48 | 0.00 | 42 | 1010.0 |
| 20260503170352 | 27 | 208 | 14.5 | 40.2 | 0.00 | 0.48 | 0.00 | 42 | 1010.0 |
| 20260503170152 | 27 | 208 | 14.5 | 40.2 | 0.00 | 0.48 | 0.00 | 42 | 1010.0 |
| 20260503160143 | 28 | 193 | 11.3 | 24.1 | 0.00 | 0.48 | 0.00 | 41 | 1009.0 |
| 20260503150944 | 29 | 252 | 4.8 | 25.7 | 0.00 | 0.48 | 0.00 | 46 | 1009.0 |
| 20260503150543 | 29 | 252 | 4.8 | 25.7 | 0.00 | 0.48 | 0.00 | 46 | 1009.0 |
| 20260503150343 | 29 | 252 | 4.8 | 25.7 | 0.00 | 0.48 | 0.00 | 46 | 1009.0 |
| 20260503150143 | 29 | 252 | 4.8 | 25.7 | 0.00 | 0.48 | 0.00 | 46 | 1009.0 |
| 20260503140305 | 30 | 309 | 11.3 | 29.0 | 0.00 | 0.48 | 0.00 | 34 | 1008.0 |
| 20260503131355 | 31 | 346 | 20.9 | 48.3 | 0.00 | 0.48 | 0.00 | 29 | 1007.0 |
| 20260503131155 | 31 | 346 | 20.9 | 48.3 | 0.00 | 0.48 | 0.00 | 29 | 1007.0 |
| 20260503130955 | 31 | 346 | 20.9 | 66.0 | 0.00 | 0.48 | 0.00 | 29 | 1007.0 |
| 20260503130755 | 31 | 346 | 20.9 | 66.0 | 0.00 | 0.48 | 0.00 | 29 | 1007.0 |
| 20260503130556 | 31 | 346 | 20.9 | 66.0 | 0.00 | 0.48 | 0.00 | 29 | 1007.0 |
| 20260503130155 | 31 | 346 | 20.9 | 66.0 | 0.00 | 0.48 | 0.00 | 29 | 1007.0 |
| 20260503110756 | 34 | 335 | 20.9 | 72.4 | 0.00 | 0.48 | 0.00 | 23 | 1006.0 |
| 20260503110556 | 34 | 335 | 20.9 | 72.4 | 0.00 | 0.48 | 0.00 | 23 | 1006.0 |
| 20260503110355 | 34 | 335 | 20.9 | 72.4 | 0.00 | 0.48 | 0.00 | 23 | 1006.0 |
| 20260503110159 | 34 | 335 | 20.9 | 72.4 | 0.00 | 0.48 | 0.00 | 23 | 1006.0 |
| 20260503100156 | 34 | 338 | 20.9 | 82.1 | 0.00 | 0.48 | 0.00 | 22 | 1006.0 |
| 20260503090345 | 35 | 336 | 25.7 | 82.1 | 0.00 | 0.48 | 0.00 | 21 | 1007.0 |
| 20260503090145 | 35 | 336 | 25.7 | 82.1 | 0.00 | 0.48 | 0.00 | 21 | 1007.0 |
| 20260503081345 | 35 | 317 | 22.5 | 85.3 | 0.00 | 0.48 | 0.00 | 22 | 1008.0 |
| 20260503081145 | 35 | 317 | 22.5 | 85.3 | 0.00 | 0.48 | 0.00 | 22 | 1008.0 |
| 20260503080946 | 35 | 317 | 22.5 | 85.3 | 0.00 | 0.48 | 0.00 | 22 | 1008.0 |
| 20260503080745 | 35 | 317 | 22.5 | 85.3 | 0.00 | 0.48 | 0.00 | 22 | 1008.0 |
| 20260503080545 | 35 | 317 | 22.5 | 85.3 | 0.00 | 0.48 | 0.00 | 22 | 1008.0 |
| 20260503080345 | 35 | 317 | 22.5 | 85.3 | 0.00 | 0.48 | 0.00 | 22 | 1008.0 |
| 20260503080145 | 35 | 317 | 22.5 | 85.3 | 0.00 | 0.48 | 0.00 | 22 | 1008.0 |
| 20260503072745 | 34 | 306 | 20.9 | 88.5 | 0.00 | 0.48 | 0.00 | 23 | 1008.0 |
| 20260503072545 | 34 | 306 | 20.9 | 88.5 | 0.00 | 0.48 | 0.00 | 23 | 1008.0 |
| 20260503072346 | 34 | 306 | 20.9 | 88.5 | 0.00 | 0.48 | 0.00 | 23 | 1008.0 |
| 20260503072145 | 34 | 306 | 20.9 | 88.5 | 0.00 | 0.48 | 0.00 | 23 | 1008.0 |
| 20260503071946 | 34 | 309 | 19.3 | 88.5 | 0.00 | 0.48 | 0.00 | 23 | 1008.0 |
| 20260503071745 | 34 | 309 | 19.3 | 88.5 | 0.00 | 0.48 | 0.00 | 23 | 1008.0 |
| 20260503071546 | 34 | 309 | 19.3 | 88.5 | 0.00 | 0.48 | 0.00 | 23 | 1008.0 |
| 20260503071146 | 34 | 308 | 19.3 | 85.3 | 0.00 | 0.48 | 0.00 | 23 | 1009.0 |
| 20260503070946 | 34 | 308 | 19.3 | 85.3 | 0.00 | 0.48 | 0.00 | 23 | 1009.0 |